Weather History for Colorado Springs, CO

Change the Weather History Date:

Saturday, March 10, 2012

  Actual Average Record
Temperature  
Mean Temperature 42 °F 38 °F  
Max Temperature 58 °F 51 °F 78 °F (1989)
Min Temperature 26 °F 25 °F 0 °F (1932)
Degree Days  
Heating Degree Days 23 27  
Month to date heating degree days 263 286  
Since 1 July heating degree days 4484 4849  
Cooling Degree Days 0 0  
Month to date cooling degree days 0 0  
Year to date cooling degree days 0 0  
Moisture  
Dew Point 26 °F    
Average Humidity 59    
Maximum Humidity 92    
Minimum Humidity 25    
Precipitation  
Precipitation 0.01 in 0.03 in 0.51 in (1927)
Month to date precipitation 0.05 0.27  
Year to date precipitation 0.36 0.93  
Snow  
Snow 0.00 in 0.30 in 5.00 in (1977)
Month to date snowfall 0.7 2.4  
Since 1 July snowfall 21.7 26.4  
Snow Depth 0.00 in    
Sea Level Pressure  
Sea Level Pressure 30.02 in    
Wind  
Wind Speed 9 mph (SE)    
Max Wind Speed 25 mph    
Max Gust Speed 30 mph    
Visibility 8 miles    
Events Fog    
T = Trace of Precipitation, MM = Missing Value Source: NWS Daily Summary

Daily Weather History Graph

Daily Weather History Graph

Search for Another Location

Airport:

Trip Planner

Search our weather history database for the weather conditions in past years. The results will help you decide how hot, cold, wet, or windy it might be!

Date:

Astronomy

Mar. 10, 2012 Rise Set
Actual Time 6:16 AM MST 6:01 PM MST
Civil Twilight 5:50 AM MST 6:27 PM MST
Nautical Twilight 5:19 AM MST 6:58 PM MST
Astronomical Twilight 4:48 AM MST 7:29 PM MST
Moon 9:14 PM MST (3/10) 7:15 AM MST (3/10)
Length of Visible Light 12h 37m
Length of Day
11h 44m
Waning Gibbous, 92% of the Moon is Illuminated
Mar 10
Waning Gibbous
Mar 14
Last Quarter
Mar 22
New
Mar 30
First Quarter
Apr 6
Full

Hourly Weather History & Observations

Time (MST) Temp. Windchill Dew Point Humidity Pressure Visibility Wind Dir Wind Speed Gust Speed Precip Events Conditions
12:54 AM 30.0 °F 24.1 °F 10.0 °F 43% 30.24 in 10.0 mi NNE 5.8 mph - N/A   Clear
1:54 AM 27.0 °F 21.6 °F 9.0 °F 47% 30.21 in 10.0 mi NNE 4.6 mph - N/A   Clear
2:54 AM 28.9 °F 23.9 °F 10.0 °F 45% 30.17 in 10.0 mi North 4.6 mph - N/A   Clear
3:54 AM 28.9 °F 25.2 °F 9.0 °F 43% 30.14 in 10.0 mi ENE 3.5 mph - N/A   Clear
4:54 AM 30.0 °F 26.5 °F 10.0 °F 43% 30.14 in 10.0 mi NNE 3.5 mph - N/A   Clear
5:54 AM 30.9 °F 27.5 °F 10.9 °F 43% 30.16 in 10.0 mi ESE 3.5 mph - N/A   Clear
6:54 AM 33.1 °F 28.7 °F 12.0 °F 42% 30.16 in 10.0 mi East 4.6 mph - N/A   Clear
7:54 AM 37.0 °F - 12.0 °F 36% 30.15 in 10.0 mi Calm Calm - N/A   Clear
8:54 AM 42.1 °F 37.7 °F 12.0 °F 29% 30.13 in 10.0 mi SE 6.9 mph - N/A   Clear
9:54 AM 46.0 °F 41.9 °F 12.0 °F 25% 30.12 in 10.0 mi SSE 8.1 mph - N/A   Clear
10:54 AM 50.0 °F - 17.1 °F 27% 30.09 in 10.0 mi SSE 11.5 mph - N/A   Clear
11:54 AM 53.1 °F - 27.0 °F 37% 30.06 in 10.0 mi SSE 17.3 mph 24.2 mph N/A   Partly Cloudy
12:54 PM 54.0 °F - 28.9 °F 38% 30.03 in 10.0 mi South 11.5 mph - N/A   Partly Cloudy
1:54 PM 54.0 °F - 30.0 °F 40% 29.99 in 10.0 mi SE 11.5 mph - N/A   Partly Cloudy
2:54 PM 55.9 °F - 28.0 °F 34% 29.94 in 10.0 mi SSE 17.3 mph 20.7 mph N/A   Partly Cloudy
3:54 PM 55.9 °F - 28.0 °F 34% 29.93 in 10.0 mi SE 19.6 mph 26.5 mph N/A   Scattered Clouds
4:54 PM 51.1 °F - 34.0 °F 52% 29.95 in 10.0 mi SSE 24.2 mph 29.9 mph N/A   Scattered Clouds
5:54 PM 46.9 °F - 35.1 °F 63% 29.96 in 10.0 mi SE 13.8 mph 23.0 mph N/A   Scattered Clouds
6:54 PM 43.0 °F 37.2 °F 36.0 °F 76% 29.98 in 10.0 mi ESE 10.4 mph - N/A   Scattered Clouds
7:54 PM 42.1 °F 38.4 °F 36.0 °F 79% 29.96 in 10.0 mi ESE 5.8 mph - N/A   Overcast
8:03 PM 42.8 °F 38.0 °F 35.6 °F 76% 29.96 in 10.0 mi ESE 8.1 mph - N/A   Overcast
8:54 PM 41.0 °F 34.3 °F 35.1 °F 79% 29.94 in 10.0 mi SE 11.5 mph - N/A   Overcast
9:04 PM 41.0 °F 35.2 °F 35.6 °F 81% 29.95 in 10.0 mi SE 9.2 mph - N/A   Overcast
9:48 PM 39.2 °F 33.0 °F 35.6 °F 87% 29.94 in 10.0 mi SE 9.2 mph - N/A   Overcast
9:54 PM 39.0 °F 32.3 °F 36.0 °F 89% 29.91 in 10.0 mi SE 10.4 mph - N/A   Overcast
10:06 PM 39.2 °F 33.0 °F 35.6 °F 87% 29.94 in 1.2 mi SE 9.2 mph - N/A   Overcast
10:25 PM 37.4 °F 31.4 °F 35.6 °F 93% 29.94 in 0.8 mi ESE 8.1 mph - N/A   Overcast
10:49 PM 37.4 °F 30.8 °F 35.6 °F 93% 29.93 in 0.2 mi SE 9.2 mph - N/A Fog Fog
10:54 PM 37.9 °F 30.9 °F 36.0 °F 93% 29.89 in 0.2 mi SE 10.4 mph - N/A Fog Fog
11:17 PM 37.4 °F 29.8 °F 35.6 °F 93% 29.92 in 0.2 mi SE 11.5 mph - 0.00 in Fog Light Drizzle
11:31 PM 35.6 °F 29.2 °F 35.6 °F 100% 29.91 in 0.2 mi SE 8.1 mph - 0.00 in Fog Light Drizzle
11:54 PM 36.0 °F 31.1 °F 35.1 °F 97% 29.85 in 0.2 mi SSE 5.8 mph - 0.01 in Fog Light Drizzle